VTK2001 UHSS-UHWW

Flight info

Callsign VTK2001
Flight time N/A
Altitude 34000
Route KENOM3V KENOM B919 UTAGI W906 TUNET W293 BEMOR/K0685F160 W293 DAGES DAGES2S
Aircraft A320/M-SDE3FGHIRWY/LB1

Departure

Time 2026-04-30 12:08
Airport Yuzhno-Sakhalinsk International Airport (UHSS)

Arrival

Time N/A
Airport Vladivostok International Airport (UHWW)
Time Latitude Longitude Altitude Speed Heading
2026-04-30 11:25 46.88784 142.72249 77 ft 0 kts 90°
2026-04-30 11:31 46.88784 142.72248 76 ft 0 kts 90°
2026-04-30 11:57 46.88784 142.72231 69 ft 2 kts 90°
2026-04-30 11:57 46.88784 142.72206 72 ft 2 kts 90°
2026-04-30 11:58 46.88784 142.72181 71 ft 2 kts 90°
2026-04-30 11:58 46.88784 142.72156 71 ft 2 kts 90°
2026-04-30 11:58 46.88784 142.72130 71 ft 2 kts 90°
2026-04-30 11:58 46.88785 142.72105 71 ft 2 kts 67°
2026-04-30 11:59 46.88774 142.72088 68 ft 2 kts
2026-04-30 11:59 46.88772 142.72088 67 ft 0 kts
2026-04-30 12:01 46.88773 142.72088 67 ft 1 kts
2026-04-30 12:01 46.88799 142.72094 67 ft 7 kts
2026-04-30 12:02 46.88854 142.72097 70 ft 7 kts
2026-04-30 12:02 46.88902 142.72098 75 ft 8 kts
2026-04-30 12:02 46.88968 142.72084 74 ft 9 kts 332°
2026-04-30 12:02 46.89020 142.72041 71 ft 8 kts 330°
2026-04-30 12:03 46.89057 142.71998 71 ft 6 kts 310°
2026-04-30 12:03 46.89085 142.71826 79 ft 10 kts 272°
2026-04-30 12:03 46.89126 142.71756 82 ft 10 kts 358°
2026-04-30 12:04 46.89213 142.71759 80 ft 15 kts
2026-04-30 12:04 46.89311 142.71761 83 ft 12 kts
2026-04-30 12:04 46.89389 142.71763 84 ft 11 kts
2026-04-30 12:04 46.89488 142.71766 84 ft 18 kts
2026-04-30 12:05 46.89612 142.71769 80 ft 18 kts
2026-04-30 12:05 46.89736 142.71771 82 ft 18 kts
2026-04-30 12:05 46.89867 142.71774 71 ft 19 kts
2026-04-30 12:05 46.89965 142.71781 71 ft 11 kts 13°
2026-04-30 12:06 46.90025 142.71832 67 ft 10 kts 15°
2026-04-30 12:06 46.90035 142.71774 69 ft 9 kts 194°
2026-04-30 12:06 46.89978 142.71777 66 ft 8 kts 179°
2026-04-30 12:06 46.89928 142.71776 74 ft 7 kts 181°
2026-04-30 12:07 46.89883 142.71775 67 ft 8 kts 181°
2026-04-30 12:07 46.89694 142.71768 81 ft 58 kts 181°
2026-04-30 12:07 46.89071 142.71754 84 ft 119 kts 181°
2026-04-30 12:07 46.88076 142.71728 85 ft 165 kts 181°
2026-04-30 12:08 46.86870 142.71681 471 ft 178 kts 182°
2026-04-30 12:08 46.85599 142.71590 1016 ft 188 kts 189°
2026-04-30 12:08 46.84256 142.71112 1317 ft 211 kts 202°
2026-04-30 12:08 46.82916 142.70069 1888 ft 225 kts 217°
2026-04-30 12:09 46.81760 142.68504 2726 ft 226 kts 233°
2026-04-30 12:09 46.80919 142.66574 3642 ft 227 kts 246°
2026-04-30 12:09 46.80441 142.64360 4451 ft 232 kts 261°
2026-04-30 12:09 46.80389 142.61988 5239 ft 237 kts 276°
2026-04-30 12:10 46.80775 142.59675 6081 ft 240 kts 290°
2026-04-30 12:10 46.81543 142.57505 6930 ft 241 kts 297°
2026-04-30 12:10 46.82278 142.55306 7778 ft 241 kts 293°
2026-04-30 12:10 46.82882 142.53017 8616 ft 242 kts 289°
2026-04-30 12:11 46.83352 142.50643 9439 ft 244 kts 285°
2026-04-30 12:11 46.83684 142.48200 10244 ft 247 kts 282°
2026-04-30 12:11 46.83884 142.45674 10831 ft 256 kts 277°
2026-04-30 12:11 46.83936 142.43018 11369 ft 268 kts 274°
2026-04-30 12:12 46.83947 142.40181 11553 ft 291 kts 274°
2026-04-30 12:12 46.83970 142.37110 11714 ft 314 kts 274°
2026-04-30 12:12 46.83994 142.33844 12083 ft 327 kts 273°
2026-04-30 12:12 46.84012 142.30501 12694 ft 331 kts 272°
2026-04-30 12:13 46.84027 142.27115 13331 ft 335 kts 272°
2026-04-30 12:13 46.84044 142.23689 13985 ft 339 kts 272°
2026-04-30 12:13 46.84064 142.20250 14587 ft 341 kts 272°
2026-04-30 12:13 46.84084 142.16760 15196 ft 343 kts 272°
2026-04-30 12:14 46.84101 142.13263 15811 ft 345 kts 272°
2026-04-30 12:14 46.84116 142.09750 16425 ft 347 kts 272°
2026-04-30 12:14 46.84128 142.06211 17041 ft 349 kts 271°
2026-04-30 12:14 46.84140 142.02653 17640 ft 351 kts 271°
2026-04-30 12:15 46.84152 141.99078 18215 ft 353 kts 271°
2026-04-30 12:15 46.84164 141.95474 18707 ft 356 kts 271°
2026-04-30 12:15 46.84176 141.91853 19205 ft 358 kts 271°
2026-04-30 12:15 46.84184 141.88207 19688 ft 360 kts 271°
2026-04-30 12:16 46.84189 141.84544 20165 ft 362 kts 271°
2026-04-30 12:16 46.84193 141.80857 20627 ft 364 kts 271°
2026-04-30 12:16 46.84113 141.77149 21064 ft 367 kts 269°
2026-04-30 12:16 46.83937 141.73423 21506 ft 369 kts 267°
2026-04-30 12:17 46.83463 141.65908 22395 ft 374 kts 266°
2026-04-30 12:17 46.83218 141.62124 22829 ft 376 kts 266°
2026-04-30 12:17 46.82981 141.58308 23261 ft 378 kts 267°
2026-04-30 12:18 46.82754 141.54483 23663 ft 380 kts 267°
2026-04-30 12:18 46.82533 141.50632 24010 ft 381 kts 267°
2026-04-30 12:18 46.82313 141.46764 24358 ft 383 kts 267°
2026-04-30 12:18 46.82094 141.42931 24694 ft 384 kts 267°
2026-04-30 12:19 46.81869 141.39034 25055 ft 386 kts 267°
2026-04-30 12:19 46.81642 141.35129 25390 ft 387 kts 267°
2026-04-30 12:19 46.81414 141.31201 25712 ft 389 kts 266°
2026-04-30 12:19 46.81187 141.27353 26027 ft 390 kts 266°
2026-04-30 12:20 46.81077 141.25493 26190 ft 391 kts 266°
2026-04-30 12:20 46.80840 141.21525 26525 ft 393 kts 266°
2026-04-30 12:20 46.80599 141.17564 26837 ft 394 kts 266°
2026-04-30 12:21 46.80355 141.13564 27150 ft 396 kts 266°
2026-04-30 12:21 46.80111 141.09555 27452 ft 397 kts 266°
2026-04-30 12:21 46.79865 141.05530 27748 ft 399 kts 266°
2026-04-30 12:21 46.79620 141.01487 28040 ft 400 kts 266°
2026-04-30 12:22 46.79373 140.97435 28324 ft 402 kts 266°
2026-04-30 12:22 46.79123 140.93374 28595 ft 403 kts 266°
2026-04-30 12:22 46.78867 140.89285 28876 ft 405 kts 266°
2026-04-30 12:22 46.78610 140.85191 29146 ft 406 kts 266°
2026-04-30 12:23 46.78351 140.81077 29464 ft 406 kts 266°
2026-04-30 12:23 46.78092 140.76982 29836 ft 405 kts 266°
2026-04-30 12:23 46.77830 140.72908 30200 ft 404 kts 266°
2026-04-30 12:23 46.77568 140.68835 30524 ft 402 kts 266°
2026-04-30 12:24 46.77308 140.64776 30835 ft 401 kts 266°
2026-04-30 12:24 46.77049 140.60723 31151 ft 401 kts 266°
2026-04-30 12:24 46.76787 140.56686 31459 ft 400 kts 266°
2026-04-30 12:24 46.76523 140.52668 31764 ft 399 kts 266°
2026-04-30 12:25 46.76253 140.48643 32078 ft 398 kts 266°
2026-04-30 12:25 46.75983 140.44627 32376 ft 397 kts 266°
2026-04-30 12:25 46.75715 140.40623 32683 ft 397 kts 266°
2026-04-30 12:25 46.75447 140.36622 32969 ft 396 kts 265°
2026-04-30 12:26 46.75178 140.32623 33230 ft 396 kts 265°
2026-04-30 12:26 46.74906 140.28634 33510 ft 396 kts 265°
2026-04-30 12:26 46.74631 140.24647 33803 ft 395 kts 265°
2026-04-30 12:26 46.74353 140.20649 34083 ft 394 kts 265°
2026-04-30 12:27 46.74077 140.16689 34322 ft 394 kts 265°
2026-04-30 12:27 46.73803 140.12705 34569 ft 393 kts 265°
2026-04-30 12:27 46.73520 140.08747 34806 ft 393 kts 265°
2026-04-30 12:27 46.73226 140.04789 35036 ft 393 kts 265°
2026-04-30 12:28 46.72759 140.00867 35241 ft 394 kts 257°
2026-04-30 12:28 46.71834 139.97092 35444 ft 397 kts 248°
2026-04-30 12:28 46.70621 139.93521 35641 ft 398 kts 247°
2026-04-30 12:28 46.69387 139.89912 35811 ft 398 kts 247°
2026-04-30 12:29 46.68157 139.86303 35954 ft 399 kts 247°
2026-04-30 12:29 46.66920 139.82677 35960 ft 399 kts 247°
2026-04-30 12:29 46.64445 139.75443 35965 ft 399 kts 246°
2026-04-30 12:30 46.61960 139.68221 35956 ft 399 kts 246°
2026-04-30 12:30 46.59473 139.61004 35956 ft 399 kts 246°
2026-04-30 12:31 46.56981 139.53776 35955 ft 400 kts 246°
2026-04-30 12:31 46.54473 139.46551 35950 ft 400 kts 246°
2026-04-30 12:32 46.51965 139.39338 35952 ft 400 kts 246°
2026-04-30 12:32 46.49446 139.32113 35945 ft 401 kts 246°
2026-04-30 12:33 46.46931 139.24899 35921 ft 401 kts 246°
2026-04-30 12:33 46.44415 139.17730 35924 ft 401 kts 246°
2026-04-30 12:34 46.41830 139.10557 35930 ft 403 kts 241°
2026-04-30 12:34 46.38482 139.03998 35931 ft 406 kts 236°
2026-04-30 12:35 46.35058 138.97502 35933 ft 405 kts 236°
2026-04-30 12:35 46.31643 138.91023 35925 ft 405 kts 236°
2026-04-30 12:36 46.28222 138.84552 35929 ft 405 kts 236°
2026-04-30 12:36 46.24805 138.78095 35931 ft 404 kts 236°
2026-04-30 12:37 46.21386 138.71650 35935 ft 404 kts 236°
2026-04-30 12:37 46.17975 138.65227 35939 ft 404 kts 236°
2026-04-30 12:38 46.14551 138.58806 35942 ft 403 kts 236°
2026-04-30 12:38 46.11127 138.52408 35943 ft 403 kts 236°
2026-04-30 12:39 46.07702 138.46031 35951 ft 402 kts 236°
2026-04-30 12:39 46.04286 138.39665 35923 ft 402 kts 236°
2026-04-30 12:40 46.00855 138.33288 35927 ft 403 kts 236°
2026-04-30 12:40 45.97446 138.26968 35945 ft 403 kts 236°
2026-04-30 12:41 45.94003 138.20604 35946 ft 403 kts 236°
2026-04-30 12:41 45.90556 138.14250 35945 ft 403 kts 236°
2026-04-30 12:42 45.87090 138.07920 35936 ft 404 kts 234°
2026-04-30 12:42 45.83521 138.01685 35942 ft 405 kts 234°
2026-04-30 12:43 45.79920 137.95484 35948 ft 405 kts 234°
2026-04-30 12:43 45.76325 137.89269 35951 ft 405 kts 234°
2026-04-30 12:44 45.72737 137.83055 35951 ft 405 kts 234°
2026-04-30 12:44 45.69155 137.76853 35968 ft 404 kts 234°
2026-04-30 12:45 45.66182 137.71700 35969 ft 404 kts 234°
2026-04-30 12:45 45.62600 137.65518 35972 ft 404 kts 234°
2026-04-30 12:46 45.59016 137.59357 35975 ft 403 kts 234°
2026-04-30 12:46 45.55424 137.53193 35977 ft 403 kts 234°
2026-04-30 12:47 45.51850 137.47049 35979 ft 403 kts 234°
2026-04-30 12:47 45.48253 137.40905 35976 ft 403 kts 233°
2026-04-30 12:48 45.44655 137.34780 35960 ft 403 kts 233°
2026-04-30 12:48 45.41063 137.28672 35966 ft 402 kts 233°
2026-04-30 12:49 45.37465 137.22572 35970 ft 402 kts 233°
2026-04-30 12:49 45.33872 137.16482 35975 ft 402 kts 233°
2026-04-30 12:50 45.30279 137.10401 35963 ft 402 kts 233°
2026-04-30 12:50 45.26682 137.04335 35964 ft 402 kts 233°
2026-04-30 12:51 45.23072 136.98281 35971 ft 402 kts 233°
2026-04-30 12:51 45.19467 136.92228 35976 ft 402 kts 233°
2026-04-30 12:52 45.15867 136.86178 35974 ft 402 kts 233°
2026-04-30 12:52 45.12242 136.80112 35965 ft 402 kts 233°
2026-04-30 12:53 45.08616 136.74066 35968 ft 402 kts 233°
2026-04-30 12:53 45.04997 136.68036 35971 ft 403 kts 233°
2026-04-30 12:54 45.01386 136.62041 35973 ft 402 kts 232°
2026-04-30 12:54 44.97755 136.56030 35962 ft 402 kts 232°
2026-04-30 12:55 44.94125 136.50016 35966 ft 402 kts 232°
2026-04-30 12:55 44.90487 136.44010 35970 ft 402 kts 232°
2026-04-30 12:56 44.87690 136.39412 35767 ft 406 kts 229°
2026-04-30 12:56 44.85733 136.36434 34799 ft 416 kts 231°
2026-04-30 12:56 44.83859 136.33406 34683 ft 407 kts 232°
2026-04-30 12:57 44.81655 136.29388 34767 ft 401 kts 242°
2026-04-30 12:57 44.78850 136.22658 34813 ft 398 kts 249°
2026-04-30 12:58 44.76700 136.15513 34802 ft 395 kts 255°
2026-04-30 12:58 44.75889 136.11892 34779 ft 380 kts 259°
2026-04-30 12:58 44.75273 136.08352 34734 ft 364 kts 263°
2026-04-30 12:59 44.74855 136.04920 34662 ft 350 kts 266°
2026-04-30 12:59 44.74576 136.01587 34469 ft 339 kts 266°
2026-04-30 12:59 44.74164 135.98343 34176 ft 336 kts 262°
2026-04-30 12:59 44.73563 135.95118 34100 ft 344 kts 257°
2026-04-30 13:00 44.72754 135.91953 34222 ft 346 kts 253°
2026-04-30 13:00 44.71780 135.88834 34312 ft 351 kts 250°
2026-04-30 13:00 44.69417 135.82763 34315 ft 355 kts 245°
2026-04-30 13:01 44.66652 135.77023 34273 ft 356 kts 240°
2026-04-30 13:01 44.63488 135.71768 34267 ft 341 kts 234°
2026-04-30 13:02 44.61830 135.69483 34213 ft 327 kts 232°
2026-04-30 13:02 44.60203 135.67360 34165 ft 312 kts 234°
2026-04-30 13:02 44.57166 135.63054 34156 ft 318 kts 237°
2026-04-30 13:03 44.54209 135.58348 34269 ft 325 kts 239°
2026-04-30 13:03 44.51314 135.53266 34131 ft 341 kts 240°
2026-04-30 13:04 44.48460 135.47784 34063 ft 355 kts 243°
2026-04-30 13:04 44.45918 135.41854 34119 ft 354 kts 247°
2026-04-30 13:05 44.43474 135.35722 34076 ft 368 kts 246°
2026-04-30 13:06 44.39380 135.26338 34088 ft 387 kts 242°
2026-04-30 13:06 44.36141 135.20185 34051 ft 399 kts 238°
2026-04-30 13:07 44.32706 135.14021 34074 ft 403 kts 238°
2026-04-30 13:07 44.29297 135.07813 34175 ft 403 kts 238°
2026-04-30 13:08 44.25898 135.01624 34363 ft 401 kts 239°
2026-04-30 13:08 44.22686 134.95283 34408 ft 400 kts 242°
2026-04-30 13:09 44.19772 134.88676 34286 ft 400 kts 245°
2026-04-30 13:09 44.18428 134.85277 34147 ft 400 kts 247°
2026-04-30 13:09 44.17167 134.81830 34032 ft 400 kts 249°
2026-04-30 13:10 44.14810 134.74798 34029 ft 400 kts 250°
2026-04-30 13:10 44.12413 134.67797 34049 ft 402 kts 247°
2026-04-30 13:11 44.10852 134.63780 34068 ft 403 kts 245°
2026-04-30 13:11 44.07958 134.57161 34070 ft 404 kts 242°
2026-04-30 13:12 44.04719 134.50704 34090 ft 404 kts 240°
2026-04-30 13:12 44.01972 134.44036 34060 ft 400 kts 249°
2026-04-30 13:13 43.98646 134.33389 34057 ft 401 kts 251°
2026-04-30 13:13 43.96509 134.26243 33997 ft 400 kts 263°
2026-04-30 13:14 43.96257 134.22426 33878 ft 394 kts 268°
2026-04-30 13:14 43.94030 134.11365 34036 ft 400 kts 253°
2026-04-30 13:15 43.93058 134.07742 34205 ft 400 kts 253°
2026-04-30 13:15 43.91200 134.00457 34091 ft 400 kts 256°
2026-04-30 13:16 43.89672 133.93052 33980 ft 401 kts 259°
2026-04-30 13:16 43.88455 133.85489 33982 ft 402 kts 261°
2026-04-30 13:17 43.86696 133.74090 34080 ft 405 kts 259°
2026-04-30 13:17 43.85443 133.67869 33738 ft 398 kts 256°
2026-04-30 13:18 43.84272 133.63084 33152 ft 386 kts 254°
2026-04-30 13:18 43.82459 133.56158 32047 ft 382 kts 255°
2026-04-30 13:18 43.81618 133.52667 31474 ft 384 kts 256°
2026-04-30 13:19 43.80825 133.49121 30943 ft 387 kts 257°
2026-04-30 13:19 43.80081 133.45525 30451 ft 389 kts 258°
2026-04-30 13:19 43.79383 133.41901 29986 ft 392 kts 258°
2026-04-30 13:19 43.78688 133.38239 29427 ft 393 kts 258°
2026-04-30 13:20 43.77989 133.34595 28921 ft 390 kts 258°
2026-04-30 13:20 43.77295 133.31029 28446 ft 388 kts 258°
2026-04-30 13:20 43.76579 133.27391 28000 ft 386 kts 258°
2026-04-30 13:20 43.75866 133.23820 27582 ft 384 kts 257°
2026-04-30 13:21 43.75111 133.20280 27024 ft 383 kts 256°
2026-04-30 13:21 43.74311 133.16838 26394 ft 380 kts 255°
2026-04-30 13:21 43.73490 133.13368 25684 ft 380 kts 255°
2026-04-30 13:22 43.71873 133.06413 24247 ft 381 kts 256°
2026-04-30 13:22 43.71113 133.02906 23469 ft 383 kts 257°
2026-04-30 13:22 43.69617 132.95746 21533 ft 392 kts 257°
2026-04-30 13:23 43.68854 132.92109 20660 ft 394 kts 257°
2026-04-30 13:23 43.67305 132.84863 19250 ft 390 kts 256°
2026-04-30 13:24 43.65226 132.78128 18237 ft 378 kts 240°
2026-04-30 13:24 43.61850 132.72728 17341 ft 364 kts 229°
2026-04-30 13:25 43.58287 132.67785 16363 ft 360 kts 230°
2026-04-30 13:25 43.54825 132.62909 15367 ft 352 kts 231°
2026-04-30 13:26 43.49864 132.55618 13896 ft 344 kts 231°
2026-04-30 13:26 43.46584 132.50815 12676 ft 343 kts 231°
2026-04-30 13:27 43.43364 132.46140 11753 ft 332 kts 231°
2026-04-30 13:28 43.38757 132.39405 10869 ft 306 kts 231°
2026-04-30 13:28 43.36265 132.35010 10703 ft 279 kts 243°
2026-04-30 13:28 43.35330 132.32727 10516 ft 270 kts 246°
2026-04-30 13:29 43.33648 132.28172 9906 ft 266 kts 248°
2026-04-30 13:29 43.31924 132.23680 9647 ft 266 kts 246°
2026-04-30 13:30 43.29215 132.16971 8555 ft 262 kts 245°
2026-04-30 13:31 43.27463 132.12721 7811 ft 251 kts 243°
2026-04-30 13:31 43.24964 132.06621 6862 ft 239 kts 245°
2026-04-30 13:32 43.23380 132.02668 6169 ft 233 kts 245°
2026-04-30 13:32 43.23164 131.98501 5702 ft 232 kts 296°
2026-04-30 13:33 43.25161 131.95957 5058 ft 247 kts 337°
2026-04-30 13:33 43.28466 131.94258 4096 ft 259 kts 344°
2026-04-30 13:34 43.30240 131.93993 3936 ft 257 kts 13°
2026-04-30 13:34 43.33433 131.98991 2975 ft 237 kts 82°
2026-04-30 13:35 43.34079 132.01033 2702 ft 226 kts 74°
2026-04-30 13:35 43.35578 132.04491 2127 ft 196 kts 78°
2026-04-30 13:36 43.36822 132.07685 1189 ft 181 kts 79°
2026-04-30 13:36 43.37396 132.09179 768 ft 171 kts 77°
2026-04-30 13:36 43.38451 132.11820 270 ft 150 kts 79°
2026-04-30 13:37 43.38933 132.13059 111 ft 146 kts 75°
2026-04-30 13:37 43.39690 132.14984 58 ft 74 kts 60°